Overview Statistics Trail Chart Weather Telemetry Raw packets
 

This is the latest recevied weather packets stored in our database for station/object W7TRD. If no packets are shown the sender has not sent any weather packets the latest 10 day(s).

<< 78 79 80 81 82 83 84 >>
Time Temp. Humidity Pressure Rain* Wind** Luminosity Snow
1788052134 20.56° C 51% 1019.5 hPa 0 mm - 38 W/m² -
1788051829 20.56° C 52% 1019.3 hPa 0 mm - 39 W/m² -
1788051524 21.11° C 51% 1019.4 hPa 0 mm - 41 W/m² -
1788051222 21.11° C 50% 1019.7 hPa 0 mm - 43 W/m² -
1788050922 21.11° C 53% 1019.3 hPa 0 mm - 54 W/m² -
1788050617 21.11° C 53% 1019.4 hPa 0 mm - 76 W/m² -
1788050316 20.56° C 53% 1019.6 hPa 0 mm - 77 W/m² -
1788050016 20.56° C 53% 1019.5 hPa 0 mm - 77 W/m² -
1788049713 21.11° C 50% 1019.5 hPa 0 mm - 53 W/m² -
1788049410 21.11° C 51% 1019.6 hPa 0 mm - 59 W/m² -
1788049105 21.67° C 51% 1019.4 hPa 0 mm - 76 W/m² -
1788048800 21.67° C 50% 1019.4 hPa 0 mm - 108 W/m² -
1788048499 21.67° C 51% 1019.3 hPa 0 mm - 109 W/m² -
1788048198 21.67° C 51% 1019.5 hPa 0 mm - 89 W/m² -
1788047895 21.67° C 49% 1019.5 hPa 0 mm - 97 W/m² -
1788047590 21.67° C 49% 1019.3 hPa 0 mm - 96 W/m² -
1788047289 21.67° C 50% 1019.5 hPa 0 mm - 106 W/m² -
1788046984 22.22° C 51% 1019.4 hPa 0 mm - 119 W/m² -
1788046683 22.22° C 51% 1019.5 hPa 0 mm - 126 W/m² -
1788046379 21.67° C 51% 1019.6 hPa 0 mm - 145 W/m² -
1788046076 21.67° C 54% 1019.4 hPa 0 mm - 178 W/m² -
1788045772 21.67° C 54% 1019.3 hPa 0 mm - 149 W/m² -
1788045467 21.67° C 50% 1019.4 hPa 0 mm - 134 W/m² -
1788045163 21.67° C 48% 1019.4 hPa 0 mm - 122 W/m² -
1788044863 21.11° C 53% 1019.4 hPa 0 mm - 114 W/m² -

* Rain latest hour (hover to see other rain measurements)
** Current wind speed in m/s (hover to see current wind gust speed)